JR4VEV-13 Weather Reports


time (UTC)temp
F
wind
direction
speed
knots
gust
knots
rain 1hr
in
rain 24hr
in
rain mn
in
humidity
%
barometer
mb
20260504130237 51 276 0.0 0.0 0.00 0.01 0.01 89 1017.8
20260504120235 51 261 0.0 0.9 0.00 0.01 0.01 89 1017.0
20260504110236 53 289 0.0 1.7 0.00 0.01 0.01 88 1016.0
20260504100234 56 282 1.7 2.6 0.00 0.01 0.01 79 1014.5
20260504081236 61 271 6.1 7.8 0.00 0.01 0.01 65 1013.0
20260504080235 61 260 8.7 10.4 0.00 0.01 0.01 65 1012.6
20260504070235 63 270 8.7 13.0 0.00 0.01 0.01 59 1011.4
20260504060234 66 262 11.3 13.9 0.00 0.01 0.01 48 1010.4
20260504050233 68 271 6.1 14.8 0.00 0.01 0.01 41 1009.1
20260504045233 68 270 4.3 17.4 0.00 0.01 0.01 41 1009.0
20260503214449 101 119 48.7 1.7 0.00 0.00 0.00 100
20260503213449 59 276 0.9 1.7 0.00 0.00 0.00 89 1005.2
20260503212448 59 319 1.7 3.5 0.00 0.00 0.00 89 1004.8
20260503211448 58 252 3.5 3.5 0.00 0.00 0.00 91 1004.8
20260503210449 57 282 0.0 3.5 0.00 0.00 0.00 92 1004.6
20260503205449 58 285 2.6 4.3 0.00 0.00 0.00 90 1004.6
20260503204449 57 300 1.7 4.3 0.00 0.00 0.00 91 1004.3
20260503203448 57 278 2.6 5.2 0.00 0.00 0.00 90 1004.1
20260503202448 58 243 1.7 7.0 0.00 0.00 0.00 89 1003.9
20260503201450 57 283 2.6 5.2 0.00 0.00 0.00 90 1003.9
20260503200448 58 352 0.9 6.1 0.00 0.00 0.00 88 1004.0
20260503195448 58 302 1.7 7.8 0.00 0.00 0.00 90 1004.0
20260503194448 57 257 2.6 6.1 0.00 0.00 0.00 94 1003.9
20260503193448 57 264 0.9 4.3 0.00 0.00 0.00 92 1003.7
20260503192449 57 34 0.0 1.7 0.00 0.00 0.00 95 1003.5
20260503191448 57 268 0.9 3.5 0.00 0.00 0.00 94 1003.4
20260503190448 57 291 0.0 2.6 0.00 0.00 0.00 93 1003.5
20260503185449 58 291 0.0 2.6 0.00 0.00 0.00 93 1003.4
20260503184448 58 263 2.6 1.7 0.00 0.00 0.00 91 1003.3
20260503183448 59 247 0.0 2.6 0.00 0.00 0.00 90 1002.9
20260503182449 60 297 1.7 10.4 0.00 0.00 0.00 88 1002.6
20260503181449 59 237 1.7 6.1 0.00 0.00 0.00 90 1002.7
20260503180448 59 300 0.9 6.1 0.00 0.00 0.00 90 1002.6
20260503175448 59 300 0.9 3.5 0.00 0.00 0.00 91 1002.8
20260503174449 59 272 0.9 6.1 0.00 0.00 0.00 92 1002.6
20260503173449 59 298 0.9 5.2 0.00 0.00 0.00 93 1002.4
20260503172449 60 260 0.0 4.3 0.00 0.00 0.00 94 1002.0
20260503171449 59 245 4.3 3.5 0.00 0.00 0.00 97 1002.3
20260503170449 60 290 0.9 3.5 0.00 0.00 0.00 98 1002.0
20260503150448 61 76 0.0 0.0 0.00 0.72 0.72 98 1001.2